Fairbanks Eiels, AK

6:23 PM AKST on December 11, 2019 (GMT -0900)
Eielson Air Force Base

Weather History for PAEI - October, 2019

Change the Weather History Date:

Tuesday, October 15, 2019

  Actual Average Record
Temperature  
Mean Temperature 22 °F -  
Max Temperature 32 °F 35 °F 58 °F (1969)
Min Temperature 13 °F 19 °F -16 °F (1965)
Degree Days  
Heating Degree Days 42    
Moisture  
Dew Point 14 °F    
Average Humidity 67    
Maximum Humidity 86    
Minimum Humidity 54    
Precipitation  
Precipitation 0.00 in - - ()
Snow  
Snow 0.00 in - - ()
Snow Depth 3.00 in    
Sea Level Pressure  
Sea Level Pressure 29.48 in    
Wind  
Wind Speed 6 mph (NE)    
Max Wind Speed 15 mph    
Max Gust Speed -    
Visibility 10 miles    
Events      
Averages and records for this station are not official NWS values.
T = Trace of Precipitation, MM = Missing Value Source: NWS Daily Summary

Daily Weather History Graph

Daily Weather History Graph

Search for Another Location

Airport or City:

Astronomy

Oct. 15, 2019 Rise Set
Actual Time 8:40 AM AKDT 6:26 PM AKDT
Civil Twilight 7:50 AM AKDT 7:16 PM AKDT
Nautical Twilight 6:54 AM AKDT 8:12 PM AKDT
Astronomical Twilight 5:56 AM AKDT 9:09 PM AKDT
Moon 7:19 PM AKDT (10/15) 10:45 AM AKDT (10/15)
Length of Visible Light 11h 25m
Length of Day
9h 46m
Waning Gibbous, 96% of the Moon is Illuminated
Oct 15
Waning Gibbous
Oct 21
Last Quarter
Oct 27
New
Nov 4
First Quarter
Nov 12
Full

Hourly Weather History & Observations

Time (AKDT) Temp. Windchill Dew Point Humidity Pressure Visibility Wind Dir Wind Speed Gust Speed Precip Events Conditions
1:56 AM 13.3 °F - 9.9 °F 86% 29.68 in 10.0 mi Calm Calm - N/A   Clear
3:35 AM 17.6 °F 3.2 °F 14.0 °F 86% 29.62 in 10.0 mi ENE 15.0 mph - N/A   Clear
3:56 AM 23.2 °F 12.6 °F 14.9 °F 71% 29.61 in 10.0 mi ENE 10.4 mph - N/A   Clear
5:29 AM 24.8 °F 15.3 °F 12.2 °F 59% 29.57 in 10.0 mi ENE 9.2 mph - N/A   Clear
5:56 AM 24.8 °F 16.1 °F 11.3 °F 57% 29.56 in 10.0 mi ESE 8.1 mph - N/A   Clear
6:56 AM 25.0 °F 15.5 °F 10.6 °F 54% 29.54 in 10.0 mi ENE 9.2 mph - N/A   Clear
7:56 AM 21.9 °F 14.5 °F 10.2 °F 61% 29.54 in 10.0 mi NNE 5.8 mph - N/A   Clear
8:56 AM 17.8 °F 8.5 °F 8.2 °F 66% 29.51 in 10.0 mi North 6.9 mph - N/A   Clear
9:56 AM 15.8 °F 7.2 °F 8.4 °F 73% 29.50 in 10.0 mi NNW 5.8 mph - N/A   Clear
10:56 AM 20.5 °F 15.6 °F 9.5 °F 63% 29.49 in 10.0 mi NNE 3.5 mph - N/A   Clear
11:56 AM 19.8 °F 10.8 °F 10.9 °F 69% 29.47 in 10.0 mi North 6.9 mph - N/A   Clear
12:56 PM 25.2 °F 16.5 °F 14.0 °F 63% 29.45 in 10.0 mi NNE 8.1 mph - N/A   Clear
1:56 PM 27.9 °F 21.5 °F 15.8 °F 61% 29.43 in 10.0 mi NE 5.8 mph - N/A   Clear
2:56 PM 28.2 °F 22.0 °F 17.6 °F 64% 29.42 in 10.0 mi North 5.8 mph - N/A   Scattered Clouds
3:56 PM 29.5 °F 24.5 °F 18.5 °F 64% 29.40 in 10.0 mi North 4.6 mph - N/A   Partly Cloudy
4:56 PM 32.0 °F 26.4 °F 17.6 °F 55% 29.39 in 10.0 mi East 5.8 mph - N/A   Partly Cloudy
5:56 PM 29.7 °F 24.7 °F 18.1 °F 62% 29.39 in 10.0 mi NE 4.6 mph - N/A   Partly Cloudy
6:56 PM 28.2 °F - 19.4 °F 70% 29.39 in 10.0 mi Calm Calm - N/A   Overcast
7:56 PM 28.0 °F 22.8 °F 16.7 °F 62% 29.39 in 10.0 mi NE 4.6 mph - N/A   Mostly Cloudy
8:56 PM 26.6 °F - 17.8 °F 69% 29.40 in 10.0 mi Calm Calm - N/A   Mostly Cloudy
9:56 PM 26.1 °F - 17.6 °F 70% 29.41 in 10.0 mi Calm Calm - N/A   Mostly Cloudy
10:56 PM 23.9 °F - 18.9 °F 81% 29.39 in 10.0 mi Calm Calm - N/A   Overcast
11:56 PM 24.3 °F 18.4 °F 17.2 °F 75% 29.39 in 10.0 mi NNW 4.6 mph - N/A   Overcast